Regional Weather Roundup
Issued by NWS Sioux Falls, SD

Home | Current Version | Previous Version | Graphics & Text | Print | Product List | Glossary Off
Versions: 1 2 3 4 5 6 7 8 9 10 11 12 13 14 15 16 17 18 19 20 21 22 23 24 25 26 27 28 29 30 31 32 33 34 35 36 37 38 39 40 41 42 43 44 45 46 47 48 49 50

000
ASUS43 KFSD 202010
RWRFSD

WEATHER ROUNDUP FOR SE SOUTH DAKOTA/SW MINNESOTA/NW IOWA
NATIONAL WEATHER SERVICE SIOUX FALLS SD
300 PM CDT FRI OCT 20 2017

NOTE: "FAIR" INDICATES FEW OR NO CLOUDS BELOW 12,000 FEET WITH NO
SIGNIFICANT WEATHER AND OR OBSTRUCTIONS TO VISIBILITY.


SDZ038>040-050-052>070-202100-
SOUTHEAST SOUTH DAKOTA

CITY           SKY/WX    TMP DP  RH WIND       PRES   REMARKS
BROOKINGS      SUNNY     74  55  51 S25G35    29.60F
CHAMBERLAIN    MOSUNNY   78  56  45 S21G29    29.49F
HURON          SUNNY     76  54  46 S23G40    29.52F
MADISON        FAIR      73  55  53 S32G40    29.61F
MITCHELL       SUNNY     76  54  46 S28G37    29.55F
SIOUX FALLS    PTSUNNY   76  57  51 S29G38    29.64F
WINNER         FAIR      78  53  41 S26G36    29.48F
$$

MNZ071-072-080-081-089-090-097-098-202100-
SOUTHWEST MINNESOTA

CITY           SKY/WX    TMP DP  RH WIND       PRES   REMARKS
FAIRMONT       MOSUNNY   76  52  43 S28G37    29.75
JACKSON        SUNNY     73  50  43 S25G33    29.75F
LUVERNE        SUNNY     73  50  43 S20G26    29.68F
MARSHALL       SUNNY     78  54  43 S29G41    29.62F
MONTEVIDEO     SUNNY     79  54  41 SW22G29   29.62F
PIPESTONE      SUNNY     73  52  46 S24G30    29.66F
REDWOOD FALLS  SUNNY     79  50  36 S31G39    29.67F
TRACY          SUNNY     77  56  48 S23G33    29.66F
WORTHINGTON    SUNNY     76  53  44 S24G33    29.71F
$$

IAZ001>003-012>014-020>022-031-032-NEZ013-014-SDZ071-202100-
NORTHWEST IOWA

CITY           SKY/WX    TMP DP  RH WIND       PRES   REMARKS
CHEROKEE       CLOUDY    75  55  49 S23G30    29.73F
DENISON        SUNNY     75  55  50 MISG      29.79F
ESTHERVILLE    SUNNY     74  53  48 S28G40    29.75F
LE MARS        SUNNY     77  55  47 S24G32    29.69F
ORANGE CITY    SUNNY     77  57  50 S21G31    29.69F
SHELDON        SUNNY     77  54  44 S21G31    29.69F
SIOUX CITY     MOSUNNY   76  57  51 S17G30    29.70F
SPENCER        SUNNY     76  54  46 S26G36    29.74F
STORM LAKE     MOSUNNY   75  54  46 S25G36    29.76F
$$

ABBREVIATIONS USED IN REMARKS
   TC - TEMPERATURE IN CELSIUS
  WCI - WIND CHILL INDEX
   HX - HEAT INDEX
  VSB - VISIBILITY





USA.gov is the U.S. government's official web portal to all federal, state and local government web resources and services.